Radiation Dose at Monitoring Post of Fukushima Daini Nuclear Power Station
Date,Time,MP-1(microSv/h),MP-2(microSv/h),MP-3(microSv/h),MP-4(microSv/h),MP-5(microSv/h),MP-6(microSv/h),MP-7(microSv/h),Wind Direction,Wind Velocity(m/s),Rain
2015/04/14,00:00,0.517,0.322,0.531,0.491,0.537,0.240,0.211,north,4.0,Yes
2015/04/14,00:10,0.519,0.322,0.534,0.494,0.537,0.240,0.211,north,4.7,Yes
2015/04/14,00:20,0.516,0.321,0.530,0.493,0.538,0.240,0.211,north,5.7,Yes
2015/04/14,00:30,0.516,0.322,0.529,0.489,0.537,0.240,0.210,north,5.8,Yes
2015/04/14,00:40,0.515,0.321,0.529,0.492,0.539,0.239,0.211,north-northwest,5.9,Yes
2015/04/14,00:50,0.515,0.323,0.527,0.490,0.538,0.239,0.212,north-northwest,6.9,Yes
2015/04/14,01:00,0.518,0.321,0.531,0.491,0.536,0.240,0.211,north-northwest,5.4,Yes
2015/04/14,01:10,0.514,0.321,0.528,0.493,0.539,0.239,0.211,north-northwest,6.9,Yes
2015/04/14,01:20,0.515,0.322,0.527,0.490,0.537,0.240,0.210,north-northwest,7.2,Yes
2015/04/14,01:30,0.517,0.322,0.534,0.493,0.539,0.240,0.211,north-northwest,7.0,Yes
2015/04/14,01:40,0.514,0.319,0.529,0.493,0.538,0.240,0.212,north-northwest,7.0,Yes
2015/04/14,01:50,0.515,0.322,0.529,0.490,0.538,0.238,0.211,north-northwest,7.2,Yes
2015/04/14,02:00,0.515,0.322,0.531,0.492,0.539,0.238,0.210,north-northwest,7.6,Yes
2015/04/14,02:10,0.514,0.320,0.530,0.493,0.539,0.240,0.211,north-northwest,6.7,Yes
2015/04/14,02:20,0.518,0.322,0.534,0.492,0.539,0.239,0.210,north-northwest,7.2,Yes
2015/04/14,02:30,0.517,0.319,0.534,0.494,0.538,0.239,0.210,north-northwest,7.2,Yes
2015/04/14,02:40,0.516,0.320,0.531,0.495,0.538,0.239,0.210,north-northwest,7.8,Yes
2015/04/14,02:50,0.517,0.322,0.534,0.495,0.538,0.240,0.210,north-northwest,8.2,Yes
2015/04/14,03:00,0.515,0.321,0.534,0.497,0.539,0.239,0.210,north-northwest,7.1,No
2015/04/14,03:10,0.517,0.322,0.532,0.494,0.538,0.239,0.209,north-northwest,7.8,No
2015/04/14,03:20,0.519,0.323,0.535,0.497,0.539,0.239,0.209,north,7.5,No
2015/04/14,03:30,0.516,0.322,0.535,0.499,0.541,0.239,0.211,north-northwest,7.9,No
2015/04/14,03:40,0.518,0.322,0.533,0.496,0.538,0.239,0.210,north,9.1,No
2015/04/14,03:50,0.518,0.322,0.536,0.499,0.539,0.239,0.210,north-northwest,7.5,No
2015/04/14,04:00,0.518,0.321,0.535,0.498,0.539,0.240,0.212,north-northwest,7.7,No
2015/04/14,04:10,0.522,0.323,0.535,0.497,0.540,0.240,0.211,north-northwest,7.8,No
2015/04/14,04:20,0.519,0.323,0.536,0.498,0.540,0.238,0.210,north-northwest,7.4,No
2015/04/14,04:30,0.519,0.320,0.536,0.499,0.539,0.239,0.212,north-northwest,6.9,No
2015/04/14,04:40,0.521,0.321,0.538,0.499,0.541,0.240,0.212,north-northwest,7.8,No
2015/04/14,04:50,0.520,0.322,0.537,0.500,0.541,0.240,0.212,north-northwest,9.8,Yes
2015/04/14,05:00,0.524,0.322,0.535,0.499,0.540,0.240,0.213,north-northwest,8.3,Yes
2015/04/14,05:10,0.520,0.322,0.540,0.499,0.542,0.240,0.212,north-northwest,8.5,No
2015/04/14,05:20,0.521,0.322,0.538,0.502,0.544,0.240,0.212,north-northwest,8.2,No
2015/04/14,05:30,0.524,0.321,0.536,0.498,0.540,0.240,0.212,north-northwest,7.2,No
2015/04/14,05:40,0.520,0.323,0.539,0.501,0.541,0.239,0.210,north-northwest,7.8,No
2015/04/14,05:50,0.522,0.322,0.536,0.498,0.542,0.241,0.212,north-northwest,7.5,No
2015/04/14,06:00,0.523,0.322,0.537,0.499,0.541,0.240,0.211,north-northwest,8.2,No
2015/04/14,06:10,0.520,0.322,0.540,0.501,0.540,0.239,0.211,north-northwest,7.6,No
2015/04/14,06:20,0.526,0.321,0.536,0.498,0.542,0.240,0.211,north-northwest,7.3,No
2015/04/14,06:30,0.522,0.323,0.540,0.501,0.540,0.240,0.210,north-northwest,7.0,No
2015/04/14,06:40,0.522,0.323,0.537,0.499,0.542,0.240,0.211,north-northwest,5.9,No
2015/04/14,06:50,0.524,0.322,0.540,0.498,0.539,0.241,0.211,north-northwest,5.6,No
2015/04/14,07:00,0.524,0.325,0.539,0.500,0.546,0.241,0.211,north-northwest,5.6,No
2015/04/14,07:10,0.524,0.321,0.535,0.497,0.541,0.240,0.211,north-northwest,5.8,No
2015/04/14,07:20,0.519,0.323,0.541,0.502,0.542,0.241,0.212,north-northwest,5.6,No
2015/04/14,07:30,0.525,0.323,0.537,0.501,0.543,0.242,0.211,north-northwest,6.2,No
2015/04/14,07:40,0.523,0.322,0.541,0.501,0.541,0.242,0.213,north-northwest,5.8,No
2015/04/14,07:50,0.525,0.324,0.539,0.502,0.546,0.242,0.211,north-northwest,5.8,No
2015/04/14,08:00,0.523,0.320,0.541,0.499,0.539,0.241,0.212,north-northwest,4.2,No
2015/04/14,08:10,0.525,0.324,0.540,0.502,0.546,0.242,0.212,north-northwest,5.6,No
2015/04/14,08:20,0.523,0.321,0.538,0.499,0.539,0.241,0.210,north-northwest,5.1,No
2015/04/14,08:30,0.523,0.324,0.541,0.501,0.545,0.241,0.212,north-northwest,5.2,No
2015/04/14,08:40,0.522,0.321,0.537,0.498,0.541,0.241,0.211,north-northwest,4.6,No
2015/04/14,08:50,0.525,0.322,0.541,0.504,0.545,0.240,0.212,north-northwest,4.7,No
2015/04/14,09:00,0.524,0.321,0.539,0.498,0.542,0.241,0.212,north-northwest,4.2,No
2015/04/14,09:10,0.524,0.323,0.543,0.503,0.546,0.243,0.213,north-northwest,4.9,No
2015/04/14,09:20,0.524,0.320,0.539,0.501,0.543,0.241,0.211,north,4.4,No
2015/04/14,09:30,0.522,0.324,0.543,0.504,0.548,0.241,0.214,north,5.2,No
2015/04/14,09:40,0.528,0.323,0.539,0.501,0.541,0.244,0.212,north,5.1,No
2015/04/14,09:50,0.524,0.324,0.544,0.504,0.548,0.242,0.213,north,5.0,No
2015/04/14,10:00,0.528,0.323,0.540,0.502,0.541,0.242,0.212,north,5.2,No
2015/04/14,10:10,0.523,0.324,0.544,0.503,0.548,0.242,0.213,north,4.8,No
2015/04/14,10:20,0.528,0.323,0.539,0.501,0.543,0.242,0.214,north-northeast,4.4,No
2015/04/14,10:30,0.526,0.325,0.545,0.506,0.548,0.242,0.213,north,3.9,No
2015/04/14,10:40,0.524,0.324,0.541,0.501,0.544,0.244,0.214,north,3.6,No
2015/04/14,10:50,0.527,0.324,0.544,0.508,0.549,0.242,0.213,north-northeast,3.6,No
2015/04/14,11:00,0.523,0.325,0.540,0.501,0.540,0.243,0.213,north-northeast,4.1,No
2015/04/14,11:10,0.529,0.323,0.546,0.507,0.546,0.242,0.214,north-northeast,3.9,No
2015/04/14,11:20,0.523,0.324,0.542,0.501,0.545,0.243,0.213,north,4.3,No
2015/04/14,11:30,0.526,0.323,0.544,0.503,0.548,0.243,0.213,north-northeast,5.9,No
2015/04/14,11:40,0.526,0.326,0.542,0.501,0.546,0.243,0.214,north-northeast,5.7,No
2015/04/14,11:50,0.527,0.324,0.545,0.507,0.545,0.242,0.214,north-northeast,5.9,No
2015/04/14,12:00,0.527,0.324,0.543,0.505,0.548,0.243,0.214,north-northeast,7.2,No
2015/04/14,12:10,0.525,0.324,0.545,0.505,0.545,0.242,0.213,north-northeast,7.5,No
2015/04/14,12:20,0.528,0.322,0.544,0.505,0.550,0.244,0.214,north,5.6,No
2015/04/14,12:30,0.525,0.326,0.542,0.504,0.544,0.243,0.215,north,3.1,No
2015/04/14,12:40,0.527,0.322,0.544,0.505,0.550,0.243,0.214,north-northeast,2.7,No
2015/04/14,12:50,0.526,0.326,0.542,0.504,0.542,0.243,0.214,north-northeast,3.2,No
2015/04/14,13:00,0.528,0.322,0.544,0.504,0.546,0.243,0.215,north,3.6,No
2015/04/14,13:10,0.526,0.324,0.543,0.505,0.544,0.243,0.214,north-northeast,3.1,No
2015/04/14,13:20,0.526,0.324,0.545,0.507,0.549,0.243,0.214,north,2.8,Yes
2015/04/14,13:30,0.526,0.323,0.542,0.504,0.543,0.243,0.214,north,2.3,Yes
2015/04/14,13:40,0.526,0.326,0.547,0.507,0.549,0.244,0.216,north-northwest,1.9,Yes
2015/04/14,13:50,0.527,0.325,0.543,0.504,0.546,0.244,0.214,north-northeast,2.7,Yes
2015/04/14,14:00,0.526,0.326,0.547,0.506,0.548,0.244,0.215,north-northeast,1.9,Yes
2015/04/14,14:10,0.529,0.324,0.543,0.506,0.547,0.244,0.216,north-northeast,1.9,Yes
2015/04/14,14:20,0.525,0.325,0.547,0.506,0.548,0.245,0.215,north,1.4,Yes
2015/04/14,14:30,0.527,0.326,0.544,0.507,0.549,0.245,0.215,north,1.7,Yes
2015/04/14,14:40,0.527,0.325,0.543,0.505,0.544,0.244,0.214,north-northeast,1.1,Yes
2015/04/14,14:50,0.525,0.326,0.544,0.504,0.550,0.245,0.214,-,CALM,Yes
2015/04/14,15:00,0.525,0.324,0.540,0.501,0.543,0.244,0.215,east-northeast,2.5,Yes
2015/04/14,15:10,0.524,0.325,0.542,0.504,0.546,0.243,0.215,-,CALM,Yes
2015/04/14,15:20,0.527,0.324,0.539,0.502,0.543,0.245,0.215,east,1.0,Yes
2015/04/14,15:30,0.523,0.323,0.543,0.501,0.544,0.244,0.215,east-northeast,1.7,Yes
2015/04/14,15:40,0.527,0.324,0.538,0.502,0.544,0.244,0.215,east-southeast,1.7,Yes
2015/04/14,15:50,0.523,0.322,0.540,0.499,0.542,0.243,0.214,southeast,1.4,Yes
2015/04/14,16:00,0.523,0.324,0.541,0.501,0.546,0.242,0.213,south,0.9,Yes
2015/04/14,16:10,0.522,0.322,0.537,0.499,0.539,0.245,0.215,west-southwest,1.9,Yes
2015/04/14,16:20,0.521,0.323,0.537,0.499,0.544,0.243,0.213,-,CALM,Yes
2015/04/14,16:30,0.524,0.323,0.536,0.498,0.541,0.243,0.214,northeast,0.9,Yes
2015/04/14,16:40,0.519,0.321,0.537,0.498,0.541,0.243,0.213,northeast,1.3,Yes
2015/04/14,16:50,0.523,0.323,0.539,0.500,0.542,0.243,0.213,east-northeast,1.1,Yes
2015/04/14,17:00,0.521,0.323,0.535,0.498,0.540,0.242,0.213,east,1.0,Yes
2015/04/14,17:10,0.523,0.323,0.539,0.499,0.546,0.242,0.212,-,CALM,Yes
2015/04/14,17:20,0.522,0.322,0.536,0.499,0.542,0.242,0.214,-,CALM,Yes
2015/04/14,17:30,0.519,0.320,0.539,0.498,0.544,0.241,0.212,south-southeast,0.8,No
2015/04/14,17:40,0.523,0.323,0.538,0.501,0.542,0.242,0.213,south-southwest,1.5,Yes
2015/04/14,17:50,0.520,0.321,0.537,0.500,0.540,0.241,0.211,south,1.6,Yes
2015/04/14,18:00,0.523,0.323,0.537,0.501,0.542,0.242,0.211,south-southwest,1.4,Yes
2015/04/14,18:10,0.520,0.320,0.534,0.499,0.540,0.241,0.211,south,0.7,Yes
2015/04/14,18:20,0.520,0.321,0.537,0.496,0.543,0.241,0.211,north-northwest,2.4,Yes
2015/04/14,18:30,0.520,0.322,0.533,0.497,0.539,0.241,0.211,north,2.9,Yes
2015/04/14,18:40,0.518,0.321,0.535,0.494,0.540,0.242,0.211,north,5.5,Yes
2015/04/14,18:50,0.522,0.323,0.535,0.498,0.541,0.241,0.212,north-northwest,7.9,Yes
2015/04/14,19:00,0.517,0.321,0.531,0.495,0.538,0.242,0.212,north,6.7,Yes
2015/04/14,19:10,0.520,0.321,0.536,0.494,0.542,0.242,0.211,north,12.9,Yes
2015/04/14,19:20,0.517,0.323,0.529,0.495,0.539,0.242,0.212,west-southwest,9.3,Yes
2015/04/14,19:30,0.518,0.321,0.533,0.492,0.540,0.241,0.212,north-northeast,6.5,Yes
2015/04/14,19:40,0.518,0.322,0.530,0.492,0.538,0.242,0.211,southwest,9.5,Yes
2015/04/14,19:50,0.515,0.321,0.528,0.488,0.537,0.242,0.212,north,16.3,Yes
2015/04/14,20:00,0.517,0.322,0.531,0.488,0.540,0.241,0.212,west-northwest,1.4,Yes
2015/04/14,20:10,0.517,0.324,0.525,0.491,0.538,0.241,0.213,north-northeast,2.5,Yes
2015/04/14,20:20,0.517,0.320,0.531,0.489,0.538,0.241,0.212,west,13.4,Yes
2015/04/14,20:30,0.517,0.323,0.526,0.489,0.540,0.242,0.213,north-northeast,2.6,Yes
2015/04/14,20:40,0.515,0.321,0.522,0.487,0.536,0.241,0.211,north-northeast,2.7,Yes
2015/04/14,20:50,0.515,0.321,0.526,0.484,0.538,0.241,0.211,north-northeast,1.9,Yes
2015/04/14,21:00,0.514,0.322,0.525,0.489,0.537,0.241,0.212,north,2.2,Yes
2015/04/14,21:10,0.516,0.321,0.529,0.488,0.538,0.241,0.211,north-northeast,2.0,Yes
2015/04/14,21:20,0.518,0.322,0.530,0.490,0.538,0.241,0.212,north-northeast,1.7,Yes
2015/04/14,21:30,0.516,0.322,0.529,0.493,0.539,0.241,0.213,southwest,1.7,Yes
2015/04/14,21:40,0.519,0.321,0.530,0.488,0.540,0.241,0.211,north,3.8,Yes
2015/04/14,21:50,0.514,0.322,0.528,0.491,0.537,0.242,0.211,northeast,1.9,Yes
2015/04/14,22:00,0.515,0.322,0.529,0.491,0.539,0.242,0.212,northeast,1.7,Yes
2015/04/14,22:10,0.517,0.321,0.531,0.492,0.539,0.240,0.212,north-northeast,1.9,Yes
2015/04/14,22:20,0.515,0.322,0.529,0.495,0.539,0.242,0.210,north,1.4,Yes
2015/04/14,22:30,0.520,0.322,0.532,0.492,0.542,0.241,0.211,west-northwest,0.6,Yes
2015/04/14,22:40,0.514,0.322,0.530,0.495,0.539,0.242,0.212,north-northeast,2.8,Yes
2015/04/14,22:50,0.517,0.321,0.530,0.492,0.540,0.242,0.211,north-northwest,2.7,Yes
2015/04/14,23:00,0.516,0.321,0.530,0.491,0.541,0.241,0.212,northwest,7.4,Yes
2015/04/14,23:10,0.514,0.322,0.528,0.493,0.537,0.241,0.211,north,3.6,Yes
2015/04/14,23:20,0.519,0.321,0.532,0.491,0.541,0.241,0.211,north,2.6,Yes
2015/04/14,23:30,0.515,0.322,0.530,0.492,0.542,0.240,0.211,north,2.7,No
2015/04/14,23:40,0.519,0.322,0.531,0.495,0.537,0.240,0.210,north,3.2,Yes
2015/04/14,23:50,0.515,0.320,0.532,0.491,0.540,0.241,0.210,north,3.0,Yes
